Tracking 31027 objects as of 19-Jul-2025
HD Live streaming from Space Station
objects crossing your sky now

DELTA 1 DEB

Track DELTA 1 DEB now!
10-day predictions


NORAD ID: 29183
Int'l Code: 1968-002G
Perigee: 955.3 km
Apogee: 1,300.5 km
Inclination: 105.8 °
Period: 107.7 minutes
Semi major axis: 7498 km
RCS: 0.0121 m2 (small)
Launch date: January 11, 1968
Source: United States (US)
Launch site: AIR FORCE WESTERN TEST RANGE (AFWTR)

Note: This is SATELLITE DEBRIS
Your satellite tracking list
FENGYUN 1C DEB
Track 1 satellite(s)




NASA's NSSDC Master Catalog

Two Line Element Set (TLE):
1 29183U 68002G   25183.82216759  .00001618  00000-0  28205-2 0  9993
2 29183 105.7990 176.5692 0230144 207.1786 275.8867 13.36920324 23851
Source of the keplerian elements: AFSPC